sat.trackr.live / text

‹ back to catalog

STARLINK-35632

NORAD 66129 · 2025-237R

PAYLOAD ACTIVE UNKNOWN

§ Identity

Operator
Country
US
Launch date
2025-10-22
Launch site
AFWTR
Launch vehicle
Mass (kg)
RCS (m²)

Purposes: comms

External: N2YO · Heavens-Above · Gunter

§ Orbital elements

Epoch: 2026-05-25T03:20:55.309920Z

Period
94.10 min
Inclination
53.1589°
Eccentricity
0.0000846
Mean motion
15.30209115 rev/d
Perigee alt
474.6 km
Apogee alt
475.8 km
Semi-major
6,853.3 km
B*
1.1584e-3
RAAN
44.6427°
Arg perigee
80.7475°
Mean anomaly
279.3621°
Rev number
3,431

§ Raw data

STARLINK-356321 66129U 25237R   26145.13952905  .00034117  00000+0  11584-2 0  99912 66129  53.1589  44.6427 0000846  80.7475 279.3621 15.30209115 34311

JSON: /api/v1/satellites/66129 · /tle

For live sub-satellite position, see the globe view (requires WebGL).

§ Visibility from observer

Set your observer location to see the next 7 days of passes ≥ 10°. The values pass through the URL so the page stays shareable.

No JS? Fill the form by hand. The geolocation button needs JavaScript.